Wind_Speed
27 26 25 24 24 22 21 21 21 22 22 22 23 22 21 21 21 21 22 21 21 21 20 20 21 22 21 21 21 21 21 21 21 21 21 21 21 20 20 20 20 20 19 19 18 17 16 15 13 12 11 10 10 11 12 12 11 10 9 9 9 9 9 8 8 9 11 13 13
28 27 26 25 25 24 23 22 23 23 23 23 23 23 22 21 21 22 23 23 22 22 21 21 22 23 22 21 21 20 20 20 20 20 20 20 20 20 20 20 19 19 19 18 18 18 17 16 15 14 12 11 10 10 11 11 11 10 9 8 8 8 8 8 8 8 9 11 13
27 27 26 26 26 26 25 25 25 25 24 23 24 23 23 22 23 23 23 23 23 23 23 23 24 24 23 22 21 21 20 20 20 20 20 20 20 20 20 20 19 19 18 18 17 17 17 17 16 15 14 13 12 11 10 10 11 11 10 9 8 7 6 6 7 7 7 8 10
27 27 27 27 26 26 25 25 25 25 24 24 24 24 24 24 24 24 24 24 24 24 24 24 24 24 23 22 22 21 20 20 20 20 19 19 19 19 20 20 20 19 19 18 17 17 16 16 16 16 15 15 13 12 11 10 10 10 10 9 8 7 6 5 5 6 6 7 8
27 27 27 26 26 25 25 24 24 24 24 24 25 25 25 25 26 26 26 26 25 25 24 24 24 23 23 22 22 22 22 21 20 20 20 19 19 19 19 19 19 19 19 18 18 17 16 16 15 15 15 15 14 13 12 11 11 10 10 9 8 7 6 5 5 5 5 5 6
26 26 25 25 25 25 25 24 24 24 25 25 25 26 27 27 27 27 27 27 26 25 25 24 24 23 23 22 22 22 22 22 21 21 20 20 19 19 18 18 18 19 19 19 18 18 17 16 15 15 15 15 14 14 13 12 12 11 10 9 8 8 7 6 5 4 4 3 4
24 24 25 25 25 25 25 25 25 25 25 25 26 27 27 27 27 27 27 27 27 27 27 26 25 25 24 23 23 22 22 22 22 21 21 20 20 19 18 17 17 17 18 18 18 18 17 17 16 16 15 14 14 14 13 13 12 12 11 11 10 9 8 7 6 5 4 3 3
23 23 23 24 24 24 24 24 25 25 26 26 27 27 27 27 27 27 27 27 28 28 27 27 27 26 25 24 23 23 23 23 22 22 21 21 20 19 19 18 17 16 16 17 17 17 17 17 16 16 16 15 15 14 13 13 13 12 12 12 11 10 9 8 8 7 6 4 3
23 23 22 22 23 23 23 24 24 25 26 26 26 26 27 27 27 27 28 28 28 27 27 27 27 26 26 25 24 24 23 23 23 22 21 21 20 20 19 19 18 17 16 16 16 17 17 17 16 16 16 15 15 15 14 13 13 13 12 12 12 11 10 9 8 8 7 7 5
23 23 23 22 22 22 23 23 23 24 25 25 25 26 26 27 27 28 28 28 27 26 26 26 26 26 26 26 25 25 24 23 22 22 21 21 21 20 20 20 19 18 17 17 16 16 16 16 16 16 16 15 15 15 15 14 14 13 13 12 12 11 11 10 9 8 7 7 7
23 23 23 23 22 22 22 23 23 24 24 25 25 26 26 27 27 27 27 27 26 26 26 26 26 26 26 26 26 25 25 24 23 22 22 21 21 20 20 20 19 19 18 18 17 17 17 16 16 16 16 15 15 15 15 15 14 14 13 13 12 12 11 10 9 8 7 7 7
23 23 22 22 22 22 23 23 24 24 25 25 25 26 26 26 27 27 27 27 27 26 26 25 25 25 25 25 25 25 24 24 24 23 22 22 21 21 20 20 20 19 19 18 18 18 18 17 17 17 16 15 15 14 14 14 14 14 14 13 13 12 11 10 9 8 8 8 8
23 23 23 23 22 23 23 24 24 24 25 25 26 26 26 26 26 27 27 27 27 27 26 25 24 24 24 24 24 24 24 24 24 23 23 22 22 22 21 21 21 20 19 19 19 19 19 19 18 18 17 16 15 15 14 14 14 14 14 14 13 13 12 11 10 9 8 8 9
24 23 23 23 23 23 24 24 24 25 25 25 26 26 26 26 27 27 27 27 27 27 26 25 24 24 23 23 23 23 23 23 23 23 23 23 22 22 22 22 22 21 21 20 20 19 19 19 19 19 18 18 16 15 15 14 14 13 13 13 14 14 13 12 11 10 10 10 10
25 24 24 24 23 24 24 24 24 25 25 25 25 26 26 26 27 27 27 27 27 27 27 26 25 24 23 22 22 22 22 22 22 23 23 23 23 23 23 23 22 22 22 21 20 20 19 19 19 20 20 19 18 17 16 15 15 14 14 13 13 14 14 13 12 12 11 11 10
26 26 25 25 24 24 24 24 24 24 25 25 25 25 26 26 26 27 27 27 27 27 27 26 26 24 23 22 22 21 21 21 22 22 23 23 23 23 23 23 23 22 22 22 21 21 20 19 19 19 19 20 19 19 18 16 16 15 15 14 14 14 14 14 13 13 12 12 11
27 27 26 26 25 25 24 24 24 24 24 24 25 25 25 26 26 27 27 27 27 27 27 27 26 25 24 23 22 22 22 22 22 22 22 23 23 23 23 23 23 22 22 22 22 21 21 20 19 19 19 19 20 20 19 18 17 17 16 16 15 15 14 14 13 13 13 13 12
28 28 27 27 26 26 25 25 24 24 24 24 24 25 25 26 26 26 27 27 27 27 27 27 26 25 25 24 23 23 22 22 22 22 22 22 22 22 22 22 22 22 21 21 21 21 21 21 20 19 19 19 19 19 19 19 19 18 18 17 16 16 15 15 14 14 14 13 13
28 28 28 27 27 26 26 25 25 24 24 24 24 25 25 25 26 26 27 27 27 27 27 27 26 26 25 24 24 23 23 22 22 22 21 21 21 21 21 21 21 21 21 20 20 20 20 20 20 20 20 19 19 18 18 19 19 19 18 18 17 17 16 16 15 15 14 14 14
29 29 28 28 27 27 26 26 25 25 25 25 25 25 26 26 26 26 27 27 27 27 27 27 27 26 26 25 24 24 23 22 22 22 22 21 21 21 21 21 21 20 20 20 19 19 19 19 19 20 20 20 19 19 18 18 18 18 18 18 18 18 17 17 16 15 15 15 15
29 29 29 28 28 27 27 26 26 26 26 26 26 26 26 27 27 27 27 27 27 27 27 27 27 27 26 26 25 25 24 23 23 22 22 22 21 21 21 21 21 20 19 19 18 18 18 18 19 19 20 20 20 20 19 18 17 17 17 17 18 18 18 18 17 17 16 16 15
29 29 29 28 28 27 27 27 27 27 27 27 27 27 27 27 27 27 27 27 27 27 27 27 27 27 26 26 26 25 25 24 23 23 23 22 22 21 20 20 20 20 19 19 19 18 19 19 19 19 20 21 21 21 20 19 18 17 17 17 17 17 18 18 18 18 17 17 16
28 28 28 28 28 28 28 28 27 28 28 28 28 28 28 28 28 29 29 28 28 28 27 27 27 27 26 26 26 26 26 25 25 24 23 23 22 22 21 21 21 21 20 20 20 20 20 20 20 20 21 21 22 22 21 20 19 19 19 18 18 18 18 18 18 18 18 18 18
28 28 28 27 27 27 28 28 28 28 29 29 29 29 29 29 29 29 29 29 28 28 28 28 28 27 27 26 26 26 26 26 26 26 25 24 24 23 23 22 22 22 21 21 20 20 20 21 21 21 21 21 22 22 22 21 21 21 20 20 19 19 19 19 19 19 19 19 19
28 27 27 27 27 27 27 28 28 29 29 29 29 30 30 30 30 30 30 29 29 29 28 28 28 28 28 27 27 26 26 27 27 27 27 26 25 25 24 24 23 23 22 21 21 21 20 20 20 21 21 21 21 21 22 22 22 22 21 21 21 20 20 20 19 19 19 19 19
28 28 28 28 28 28 28 28 28 29 29 29 30 30 30 30 30 30 30 30 29 29 29 29 28 28 28 28 27 27 27 27 27 27 27 27 27 26 26 25 25 24 23 23 22 22 21 21 20 20 20 20 20 21 21 21 21 22 22 22 22 22 21 21 21 20 20 19 19
28 28 28 28 28 28 28 28 28 29 29 29 30 30 30 30 31 30 30 30 30 30 29 29 28 27 27 27 28 28 28 27 27 27 27 27 27 27 27 26 26 25 24 24 23 22 22 22 21 20 20 20 20 20 20 20 21 21 21 21 22 22 22 22 22 21 21 21 20
28 28 28 28 29 29 29 29 29 29 29 29 29 30 30 30 30 30 30 30 30 30 30 29 28 27 27 27 27 28 28 28 27 27 27 27 27 27 27 27 26 26 25 24 24 23 23 22 22 21 21 20 20 20 20 20 20 20 20 20 21 21 21 22 22 22 22 22 22
28 28 28 28 29 29 29 30 30 30 30 29 29 30 30 30 29 29 30 30 30 30 29 29 28 27 27 27 27 27 28 27 27 27 27 27 27 27 27 27 27 26 26 25 24 24 23 23 22 22 21 21 21 21 21 21 20 20 20 20 20 20 21 22 22 23 23 23 23
28 28 28 28 29 29 30 30 30 30 30 30 30 30 30 30 29 29 29 29 29 29 29 28 28 27 27 27 27 27 27 27 27 27 27 27 27 27 27 27 27 27 26 25 25 24 24 23 23 22 22 22 22 22 22 22 21 21 21 20 20 20 21 21 22 23 23 24 23
28 28 28 28 28 29 29 30 30 31 31 31 31 31 30 30 29 29 29 29 29 29 29 28 27 27 28 28 27 27 27 27 27 27 27 27 27 27 28 27 27 27 26 26 25 25 25 24 24 23 23 23 23 23 23 23 23 22 22 22 21 21 21 21 22 23 23 23 24
28 27 28 28 28 29 30 30 31 31 31 31 31 31 31 31 30 30 30 29 29 29 28 28 28 28 28 28 28 27 27 27 27 26 26 26 26 27 28 28 28 27 27 26 26 26 25 25 25 24 24 24 24 24 24 24 24 24 24 23 23 23 22 22 22 22 23 23 23
28 28 28 28 28 29 30 30 30 31 31 31 31 31 31 32 32 31 31 30 29 28 28 28 28 28 28 28 28 28 27 27 27 26 26 26 26 27 27 28 28 28 27 27 27 26 26 26 26 25 25 25 24 24 25 25 25 25 25 25 25 24 24 23 23 23 23 23 23
28 28 28 28 29 29 30 30 30 30 31 31 31 31 31 31 32 32 32 31 30 29 29 28 28 28 28 28 28 28 28 28 27 27 27 26 26 26 27 27 28 28 28 27 27 27 27 27 26 26 26 25 25 25 25 25 26 26 26 26 26 26 26 25 24 24 23 23 23
28 28 28 29 29 29 30 30 30 30 30 30 31 31 31 31 31 31 31 31 31 30 30 30 30 30 29 29 29 28 28 29 29 28 28 27 27 27 27 27 28 28 28 27 27 27 27 27 27 27 26 26 25 25 26 26 26 26 26 26 26 27 26 26 26 25 24 23 23
28 28 28 29 29 30 30 30 30 30 30 30 30 31 31 32 31 31 31 31 30 30 30 31 31 31 30 30 29 29 29 29 29 30 29 28 27 27 27 28 28 28 28 27 27 26 26 26 27 26 26 26 26 26 26 26 26 26 26 26 26 26 26 26 26 25 25 24 23
28 28 28 29 29 29 30 30 29 29 30 30 30 30 31 31 31 31 31 30 29 30 30 31 31 31 31 31 31 31 30 30 30 30 30 29 28 27 27 28 29 29 28 27 26 25 25 25 26 26 26 26 26 27 26 26 26 26 26 26 27 27 26 26 26 25 25 24 23
29 29 28 29 29 29 29 29 29 29 30 30 30 31 31 31 31 31 30 29 28 29 30 30 31 31 32 32 32 32 32 31 30 30 30 29 29 28 28 29 30 30 29 27 25 24 24 24 25 25 25 26 26 27 26 25 25 26 26 26 27 27 27 26 25 25 25 24 24
29 29 29 29 29 29 29 29 29 29 30 30 31 31 31 31 30 30 30 29 28 28 29 30 31 31 32 32 32 32 32 32 31 30 30 30 30 29 29 29 30 30 29 27 25 24 24 25 25 25 25 25 26 26 26 25 25 26 26 26 26 27 27 26 25 24 24 25 24
30 30 29 29 29 29 29 29 30 30 30 31 31 31 31 31 31 30 30 29 29 29 29 29 30 31 32 31 31 32 33 33 33 32 31 31 31 30 29 29 30 31 31 29 27 26 25 25 26 26 26 25 26 26 25 25 25 26 26 26 26 26 26 26 25 25 25 25 24
30 30 30 29 29 29 29 30 30 31 31 31 31 31 31 31 30 30 30 30 30 30 30 30 30 31 32 31 31 31 32 34 34 34 34 33 32 31 31 30 31 32 33 32 30 28 27 26 26 26 26 25 25 25 24 24 25 25 26 26 25 25 25 26 25 25 25 25 25
Wind_Direction
31 29 27 25 23 22 21 19 19 20 21 20 21 21 20 17 15 15 16 15 13 12 10 9 9 8 7 7 8 8 9 11 14 16 17 17 16 15 14 14 13 11 10 9 9 10 11 10 10 9 6 2 0 359 357 353 349 344 337 329 320 312 307 303 289 267 250 243 241
30 29 28 26 25 23 22 20 19 20 20 20 19 20 20 18 15 15 16 16 15 13 10 9 10 10 9 8 7 7 7 7 9 12 15 16 16 15 15 15 14 13 12 11 9 9 8 7 8 9 8 3 357 353 351 353 353 352 349 342 335 327 321 319 314 298 277 262 255
29 29 28 28 26 25 23 21 20 20 19 18 18 18 19 17 16 15 15 16 16 15 13 11 10 11 11 10 8 7 6 5 5 7 10 13 14 14 14 14 15 15 14 12 11 9 7 6 5 6 6 5 3 0 355 350 348 350 351 349 346 341 336 332 327 319 307 290 277
30 29 28 27 27 27 25 23 21 20 19 17 17 17 17 16 15 14 14 15 16 15 13 11 10 11 12 11 9 8 7 5 3 2 4 7 9 11 12 12 13 14 15 14 13 11 8 6 4 3 4 4 5 5 1 356 352 349 347 348 347 349 349 344 335 330 325 316 304
29 29 28 28 27 27 26 25 23 22 20 18 17 17 17 15 14 14 14 15 14 13 12 11 10 10 11 11 11 9 8 7 4 1 -0 1 3 6 8 9 10 11 12 13 13 13 11 9 7 5 5 4 3 3 3 1 359 355 351 346 342 343 345 346 343 340 337 332 325
28 28 28 28 28 27 27 26 25 24 22 20 19 18 17 15 14 13 13 13 12 12 12 12 11 10 10 10 11 10 8 7 5 3 1 359 359 0 3 5 5 6 7 8 10 11 12 11 9 7 6 5 5 3 0 358 0 2 2 358 352 345 338 332 335 339 343 344 341
27 27 27 28 27 27 27 26 25 25 24 22 21 20 18 16 14 13 13 12 12 12 11 11 10 9 9 9 9 9 8 7 6 5 3 1 358 357 358 359 1 1 2 3 4 6 8 9 9 8 7 5 4 3 360 357 357 359 2 3 0 355 347 337 330 329 333 340 341
28 27 27 27 26 26 26 26 25 24 23 22 21 20 18 16 15 13 12 12 12 11 10 9 9 9 9 9 9 8 7 6 6 5 5 3 0 358 357 356 356 357 357 358 358 359 1 3 5 6 7 6 5 3 0 357 354 351 351 353 355 353 348 339 331 323 315 312 314
26 26 26 25 25 24 24 25 25 23 22 21 21 19 18 17 15 13 12 11 10 10 10 9 8 8 8 8 8 8 7 6 5 5 5 4 2 360 358 356 354 354 353 354 354 354 354 356 358 1 2 3 3 3 1 359 356 352 348 345 345 346 347 344 336 324 310 300 294
24 23 23 22 22 22 22 23 23 23 21 20 19 18 17 16 15 13 11 10 9 10 10 9 8 7 7 7 7 6 6 5 4 4 4 4 3 1 359 357 355 353 352 352 352 351 350 350 351 353 355 357 358 358 358 358 357 355 351 347 342 340 339 339 338 332 322 308 296
23 23 22 20 19 19 19 20 20 20 19 17 16 16 15 15 13 12 10 9 9 9 9 9 8 7 6 5 5 4 4 4 4 4 4 5 4 3 1 358 356 354 352 351 350 349 348 348 348 348 349 350 351 352 353 354 354 354 352 349 345 339 335 333 331 329 325 318 307
23 22 21 20 19 18 17 17 17 17 16 15 14 13 12 12 11 10 9 9 8 8 8 8 8 7 6 4 3 2 2 2 3 3 4 4 4 4 2 0 358 355 353 351 349 347 347 346 346 345 344 345 345 346 346 347 348 349 349 348 345 341 337 331 326 321 316 312 307
22 22 21 20 19 17 16 16 15 14 13 12 11 10 9 9 9 8 7 7 6 6 6 7 7 6 5 4 2 1 1 1 1 2 2 3 3 3 2 1 360 357 354 351 348 346 344 343 343 342 341 341 341 341 340 340 341 342 343 344 343 341 339 334 327 320 312 305 301
21 21 20 19 18 17 16 14 13 12 10 10 9 7 6 6 6 6 5 4 4 4 4 4 5 5 4 3 1 0 360 359 359 360 0 1 1 1 1 0 360 358 355 352 349 346 343 341 340 338 337 337 338 338 337 335 334 334 335 336 338 338 337 336 332 326 317 309 302
19 19 19 18 18 17 15 13 12 10 8 7 6 5 4 4 4 4 3 2 2 1 2 2 2 2 2 1 0 359 358 358 358 358 358 358 358 358 358 357 357 356 355 353 350 347 344 340 337 335 334 333 334 335 335 333 331 329 328 328 329 331 333 334 334 331 325 319 311
15 16 16 16 16 15 14 12 10 8 7 5 5 4 3 2 2 2 2 1 -0 359 360 360 359 359 359 359 359 358 357 357 356 356 356 356 355 354 354 353 353 353 352 351 350 348 345 342 338 334 331 329 329 330 331 331 329 327 325 323 323 324 326 329 331 331 329 325 319
11 12 12 12 12 12 11 10 9 7 5 4 3 2 2 1 360 360 360 360 359 358 357 357 357 357 357 357 357 357 356 355 355 355 354 353 352 351 351 350 350 349 349 348 348 348 347 345 341 337 332 328 325 325 326 327 326 325 323 322 321 320 321 322 324 326 326 325 320
7 7 8 8 8 8 7 7 6 5 4 3 2 1 0 360 358 358 358 359 358 357 355 355 355 355 355 354 355 355 354 353 352 352 351 350 349 348 348 347 346 345 345 345 345 346 346 346 344 341 336 331 326 324 323 323 323 323 322 321 320 319 319 319 319 319 320 319 318
3 3 3 4 3 3 3 3 2 2 1 1 360 359 359 359 358 357 357 358 358 357 355 353 353 354 354 353 353 353 352 351 350 349 348 348 347 346 345 344 343 342 342 342 343 343 345 345 345 344 341 337 332 328 324 322 321 321 320 320 319 318 317 317 316 315 314 314 313
360 359 359 359 359 359 359 359 359 358 358 358 358 357 357 357 357 356 356 356 356 356 355 353 353 352 352 352 351 351 350 349 348 347 346 345 344 344 343 342 341 340 340 340 341 342 343 344 345 345 344 342 338 334 330 325 322 320 319 319 318 316 316 314 313 312 311 310 309
356 356 355 355 355 355 355 355 355 355 355 355 355 355 355 355 355 354 354 354 354 354 354 353 352 351 351 350 349 348 348 347 346 345 343 343 342 341 341 340 338 337 337 338 339 340 341 342 343 344 344 342 340 337 334 329 323 320 319 318 316 315 313 312 310 309 307 307 306
353 352 352 352 352 352 352 352 352 352 352 352 352 352 352 352 352 352 351 352 352 352 352 352 351 350 349 349 348 347 346 345 344 343 342 341 340 339 339 338 336 335 335 336 338 339 340 341 341 342 341 339 337 336 333 329 325 322 320 318 316 314 312 310 308 307 305 304 303
349 349 349 349 349 349 349 349 349 349 349 350 349 349 349 349 348 348 348 349 349 350 350 349 349 348 348 348 347 346 345 343 342 341 341 340 339 338 337 337 336 335 335 335 337 339 340 339 338 338 336 334 332 330 328 326 322 321 320 318 316 315 312 310 308 306 304 302 301
346 346 346 346 347 347 347 347 347 347 347 347 347 346 346 346 345 345 345 346 346 346 346 346 346 346 346 346 346 345 344 343 341 340 339 338 338 337 337 336 335 334 333 333 334 336 337 336 334 332 330 328 326 324 323 321 319 318 317 316 315 313 312 311 308 306 303 301 299
343 343 344 344 344 344 345 345 345 345 345 344 344 344 343 343 342 342 342 342 342 343 343 342 342 343 343 343 343 343 343 342 341 340 338 337 336 336 335 335 333 332 331 330 331 332 332 331 328 327 325 323 321 319 318 317 316 316 315 314 313 311 310 309 308 306 303 301 298
341 341 342 342 342 342 343 343 343 343 342 342 342 341 340 340 339 339 338 338 339 339 339 339 339 339 339 339 339 339 340 339 339 338 337 336 335 334 334 333 332 330 329 329 328 328 327 326 325 324 323 321 319 317 315 314 314 314 314 313 312 310 308 307 305 305 303 302 299
340 340 340 340 340 340 341 341 341 340 340 340 339 338 338 337 337 336 336 335 335 335 335 336 336 335 335 335 335 335 335 336 336 336 335 334 334 333 332 331 330 328 328 327 326 325 324 324 323 322 322 321 319 317 315 313 313 313 312 312 311 309 307 305 304 303 302 302 301
338 338 339 339 338 338 338 338 338 338 337 337 336 335 335 334 334 333 333 333 333 333 333 333 332 331 331 330 330 330 331 331 332 332 332 331 331 330 330 329 328 326 326 325 324 323 322 321 321 320 320 320 318 317 315 314 313 312 311 310 308 306 305 303 302 301 300 300 300
337 337 337 337 336 336 336 336 336 335 334 333 333 332 331 331 331 331 331 331 331 331 330 329 329 328 327 326 326 326 326 327 327 328 328 328 328 328 328 327 326 324 324 324 323 322 321 320 319 318 318 318 317 315 314 313 312 312 310 308 306 304 303 301 301 300 299 298 297
335 335 335 334 334 334 334 334 333 333 332 331 330 329 329 329 328 328 328 328 328 327 327 326 325 324 322 322 322 321 321 322 323 323 323 323 324 324 324 324 323 322 322 322 322 321 320 319 317 316 316 316 315 314 312 311 311 310 309 307 305 303 302 300 299 298 297 296 294
333 333 332 332 331 331 331 331 331 330 330 329 328 328 327 327 326 326 326 325 325 325 324 324 322 320 319 319 318 317 317 317 318 318 318 318 319 319 320 320 320 320 320 320 320 320 319 317 316 314 314 314 313 312 310 309 308 307 306 305 304 302 301 299 297 296 294 293 292
331 330 330 329 328 328 328 329 328 328 327 327 326 325 325 325 324 324 324 324 323 323 322 321 320 318 317 317 316 315 314 314 313 313 313 313 314 314 315 316 316 317 317 318 318 318 317 315 314 312 312 311 311 309 308 307 306 305 303 302 301 300 299 297 295 293 292 290 289
328 328 327 326 325 325 325 326 325 325 324 324 323 323 323 322 322 322 322 322 322 321 320 319 317 316 315 314 314 313 312 310 310 309 309 309 309 309 309 310 311 312 314 315 315 315 314 313 311 310 310 310 309 307 306 304 303 302 301 300 298 297 296 295 293 292 290 288 287
325 325 324 323 323 323 322 322 322 322 321 321 320 320 320 320 320 320 320 320 320 319 318 316 315 314 313 312 312 311 310 309 308 307 307 306 306 305 304 304 305 307 309 310 311 310 310 309 308 308 308 307 306 305 303 302 301 300 299 297 296 295 294 292 291 290 288 286 284
323 322 321 320 320 320 319 319 319 319 318 317 317 317 317 317 317 317 317 317 317 316 315 315 314 313 312 312 311 310 309 308 307 306 305 304 303 301 300 299 300 302 304 305 305 305 305 305 305 304 304 304 303 302 301 300 299 298 297 295 294 293 292 291 290 289 287 285 282
320 319 318 317 317 316 316 316 316 315 314 314 313 314 314 314 314 314 314 315 315 314 313 313 313 312 311 310 310 309 307 306 306 305 305 304 302 299 297 297 297 299 300 301 300 300 300 300 300 301 301 301 300 299 298 298 297 296 294 293 292 290 290 289 289 287 286 284 280
317 316 314 313 313 313 313 312 312 311 311 310 310 310 310 310 311 311 312 312 312 311 310 311 310 310 309 309 308 307 306 305 305 304 303 302 300 298 297 296 296 296 297 297 296 295 294 295 295 296 296 296 296 295 295 295 294 293 292 291 290 289 288 287 287 286 285 283 280
314 313 311 310 310 309 309 309 308 307 307 307 307 307 307 307 307 308 309 309 308 307 307 307 307 306 307 307 306 305 305 304 303 302 301 300 299 298 296 295 295 295 295 294 292 290 289 290 290 291 292 292 292 292 292 291 290 289 288 288 288 287 286 286 285 284 283 282 280
311 310 309 308 307 306 306 305 305 304 304 304 304 305 305 305 305 305 306 305 304 304 303 303 303 303 304 304 304 303 303 302 301 300 298 298 297 297 295 294 293 293 292 291 288 287 286 286 286 287 287 287 287 287 287 287 286 286 285 285 285 285 285 284 283 283 282 281 280
309 308 307 305 304 304 303 303 302 302 302 302 302 302 302 302 302 302 303 302 302 301 301 300 300 300 301 302 301 301 300 300 299 298 297 296 296 295 294 292 292 291 291 290 288 286 284 284 284 283 283 283 283 283 282 282 282 282 281 281 281 282 283 283 283 282 281 280 279
307 306 305 304 303 302 301 301 300 301 301 301 300 300 300 301 300 300 300 300 300 300 299 299 298 299 299 299 299 298 298 298 297 297 297 296 296 294 293 291 291 291 290 290 288 286 284 282 281 281 280 279 279 278 278 278 278 278 277 278 278 279 280 281 281 281 280 279 278
Height
776 776 775 774 774 773 773 773 772 771 770 770 769 768 767 766 765 764 764 763 762 761 761 760 759 758 757 756 754 754 752 751 750 749 749 747 746 745 744 743 742 740 739 739 738 738 737 737 737 737 736 735 735 736 736 735 734 734 733 733 733 733 733 733 733 733 733 733 733
778 777 776 775 774 774 773 773 772 771 771 770 769 769 768 767 766 765 764 763 763 762 761 760 759 758 757 756 754 754 753 751 750 749 749 748 747 746 744 744 742 741 740 740 739 739 738 738 738 737 737 736 736 736 736 735 734 734 733 733 733 732 732 732 732 732 732 732 732
779 778 777 776 775 774 774 773 772 772 771 770 770 769 768 767 767 765 765 764 763 762 761 760 759 758 757 756 754 754 753 752 751 750 749 748 747 746 745 744 743 742 742 741 740 739 739 738 738 738 737 737 736 736 735 735 734 734 734 734 733 732 732 732 732 732 732 732 732
780 779 778 777 777 776 775 774 774 772 772 771 770 769 769 768 767 766 765 764 763 762 761 760 759 758 757 756 755 754 753 752 751 750 749 748 747 746 746 745 744 743 742 742 741 740 739 739 738 738 738 737 737 736 736 735 735 735 735 734 733 732 732 732 732 732 732 732 732
781 780 779 779 778 777 776 775 774 774 773 772 770 769 769 768 767 766 765 764 763 762 761 760 759 758 757 756 755 754 753 752 751 750 749 749 748 747 746 745 744 744 743 743 742 741 740 739 739 738 738 737 737 736 736 735 735 735 734 734 733 733 733 732 732 732 732 732 732
782 781 780 779 779 778 777 776 775 774 773 772 771 770 769 768 767 766 765 764 764 763 762 760 759 758 757 756 755 754 753 752 752 751 750 749 748 747 747 746 745 744 744 743 742 742 741 740 740 739 739 738 737 736 736 735 735 735 734 734 734 733 733 733 732 732 732 732 732
783 782 781 780 779 779 778 777 776 775 774 773 771 770 769 769 768 767 766 765 764 762 761 760 759 759 757 756 755 754 753 752 752 751 750 749 749 748 747 746 746 745 744 744 743 742 742 741 740 740 739 738 738 737 736 736 735 735 734 734 734 734 734 733 732 732 733 733 733
784 783 782 781 780 779 778 777 776 775 774 773 772 771 770 769 768 767 766 764 764 763 762 761 760 759 758 757 756 754 753 752 751 751 750 749 749 748 748 747 746 746 745 744 744 743 742 742 741 740 739 739 738 738 737 736 736 735 735 734 734 734 734 734 733 733 733 734 733
784 783 782 781 780 779 779 778 777 776 774 774 773 772 771 770 769 767 766 765 764 763 762 761 760 759 758 757 756 755 754 753 752 751 750 750 749 748 748 747 746 746 745 745 744 744 743 742 741 741 740 739 739 738 738 737 736 736 735 735 734 734 734 734 734 734 734 734 734
784 783 782 782 781 780 779 778 777 776 775 774 773 772 771 770 769 768 767 766 765 764 762 761 760 759 758 757 756 755 754 754 753 752 751 750 749 749 748 747 747 746 746 745 744 744 743 743 742 741 740 740 739 739 738 737 737 736 735 735 735 734 734 734 734 735 734 734 734
785 784 783 782 781 780 779 778 777 776 775 774 774 773 772 771 770 769 768 767 765 764 763 762 760 759 758 757 756 755 755 754 753 752 751 750 749 749 748 747 747 746 746 745 745 744 744 743 742 741 741 740 740 739 738 738 737 736 736 735 735 735 735 735 735 736 735 735 734
785 784 784 783 782 781 779 779 778 777 776 775 774 773 772 771 770 769 768 767 765 764 763 762 761 760 759 758 757 756 755 754 753 752 751 750 750 749 748 747 747 746 746 745 744 744 744 743 742 742 741 741 740 739 739 738 738 737 736 736 736 736 736 736 736 736 736 735 735
786 785 784 783 782 781 780 779 778 777 776 775 774 774 773 772 771 770 769 767 766 765 764 763 762 761 759 759 758 756 755 754 754 753 752 751 750 749 748 747 747 746 745 745 744 744 743 743 742 742 741 741 740 740 739 739 738 737 737 736 736 736 736 735 736 736 735 735 734
786 785 784 783 782 781 780 779 778 778 777 776 775 774 773 772 771 770 769 768 767 765 764 763 762 761 760 759 758 757 756 755 754 753 752 751 750 749 748 747 747 746 745 744 744 744 743 742 742 741 741 740 740 739 739 739 738 738 737 737 736 736 735 735 735 734 734 734 733
786 785 784 784 783 782 781 780 779 778 777 776 775 774 774 772 771 770 769 768 767 766 765 764 762 761 760 759 759 757 756 755 754 753 752 750 749 749 748 747 746 746 745 744 744 743 743 742 741 741 740 739 739 739 739 738 738 738 737 737 736 736 735 734 734 733 733 732 732
786 785 784 784 783 782 781 780 779 779 778 777 776 775 774 773 772 771 769 769 767 766 765 764 763 761 760 759 759 757 756 755 754 753 752 750 749 749 748 747 746 746 745 744 744 743 743 742 741 741 740 739 739 738 738 737 737 737 736 736 736 735 735 734 734 733 732 731 731
786 785 784 784 783 782 781 781 780 779 778 777 776 775 774 773 772 771 770 769 768 766 765 764 763 762 760 759 759 757 756 755 754 753 752 751 750 749 748 747 747 746 745 744 743 743 742 742 741 741 740 739 738 738 737 736 736 736 735 735 734 734 734 734 733 732 732 731 730
786 785 784 784 783 782 781 781 780 779 779 778 777 775 774 774 772 771 770 769 768 767 765 764 763 762 761 759 759 758 756 755 754 753 752 751 750 749 749 748 747 746 745 744 744 743 742 741 741 740 740 739 738 737 737 736 735 734 734 734 733 733 733 732 732 732 731 731 730
785 784 784 783 783 782 781 781 780 779 779 778 777 776 774 774 772 771 770 769 768 767 765 764 763 762 761 760 759 758 757 756 754 754 753 752 751 750 749 748 747 746 745 744 744 743 742 741 740 740 739 739 738 737 737 736 735 734 734 733 733 732 732 731 731 731 730 730 730
785 784 784 783 782 782 781 780 780 779 778 777 776 775 774 774 772 771 770 769 768 767 766 764 763 762 761 759 759 757 757 756 755 754 753 752 751 750 749 748 747 746 745 744 744 743 742 741 740 739 739 738 738 737 736 736 735 734 733 733 732 732 731 731 731 730 730 730 729
785 784 784 783 782 781 781 780 779 779 778 777 776 775 774 773 772 771 770 769 768 767 765 764 763 762 760 759 758 757 756 755 754 754 753 752 751 750 749 748 747 746 745 744 744 743 742 741 740 739 739 738 737 737 736 736 735 734 733 733 732 731 731 731 730 730 730 729 729
785 784 783 783 782 781 780 779 779 778 777 776 775 774 774 773 772 771 770 769 768 767 765 764 763 762 761 759 758 757 756 755 754 753 752 751 750 749 749 748 747 746 745 744 743 742 741 741 740 739 739 738 737 736 736 735 735 734 733 733 732 731 731 730 730 730 729 729 729
785 784 783 782 781 780 779 779 778 777 776 775 774 774 773 772 771 770 769 768 767 766 765 764 763 762 761 759 759 757 756 754 753 752 752 751 750 749 748 747 746 745 744 743 743 742 741 740 739 739 738 738 737 736 735 735 734 734 733 732 731 731 730 730 730 729 729 729 728
784 784 783 782 781 780 779 778 777 776 775 774 774 773 772 771 770 769 768 768 767 766 765 764 763 762 760 759 758 757 756 754 753 752 750 750 749 748 747 746 745 744 744 743 742 742 741 740 739 739 738 737 737 736 735 734 734 733 733 732 731 730 730 729 729 729 728 728 728
784 783 782 781 780 779 778 777 776 775 774 774 773 772 771 770 769 768 767 767 766 765 764 763 762 761 760 759 758 757 756 754 753 751 750 749 748 747 746 745 744 744 743 742 742 741 741 740 740 739 738 737 737 736 735 734 734 733 732 731 730 729 729 728 728 728 728 727 727
783 782 781 780 779 779 778 777 776 775 774 773 772 771 770 769 768 767 766 766 765 764 764 763 762 760 759 759 757 756 755 754 753 752 750 749 747 746 745 745 744 743 742 742 741 740 740 739 739 739 738 737 736 735 734 734 733 732 731 730 729 729 728 727 727 727 727 727 726
782 781 780 779 779 778 777 776 775 774 774 772 771 770 769 769 768 767 766 765 764 763 762 762 761 760 759 758 757 756 755 754 753 751 750 749 748 746 745 744 743 742 742 741 740 740 739 739 738 738 737 736 736 735 734 733 732 732 731 730 729 728 727 727 726 726 725 725 725
782 781 779 779 778 777 776 775 774 773 773 772 771 770 769 768 767 766 765 764 763 762 761 760 759 759 758 757 756 755 754 753 752 751 750 749 747 746 745 744 743 742 741 740 739 739 738 738 737 737 736 736 735 734 733 732 732 731 730 729 728 727 726 726 725 725 724 724 724
781 780 779 778 777 776 775 774 773 772 771 771 770 769 768 767 766 765 764 763 762 761 760 759 758 758 757 756 755 754 753 752 752 750 749 748 747 746 744 743 742 741 740 739 739 738 737 737 736 735 735 734 734 733 732 731 730 730 729 728 727 726 726 725 724 724 724 723 723
780 779 778 777 776 775 774 773 772 771 770 769 769 768 767 766 765 764 763 762 761 760 759 759 757 756 756 755 754 753 752 751 750 749 749 748 746 745 744 743 741 740 739 739 738 737 736 736 735 734 734 733 733 732 731 730 729 729 728 727 726 725 725 724 724 723 723 722 722
779 779 778 777 775 774 774 773 772 770 769 769 768 766 765 764 764 763 762 761 760 759 758 757 756 755 754 754 753 752 751 750 749 749 748 747 745 744 743 742 741 739 739 738 737 736 735 734 734 733 733 732 731 731 729 729 728 727 726 725 725 724 724 723 723 722 721 721 721
779 778 777 776 775 774 773 772 771 770 769 768 767 765 764 763 762 761 761 760 759 758 756 755 754 754 753 752 751 750 749 749 748 747 746 746 744 743 742 741 740 739 738 737 736 735 734 733 733 732 731 731 730 729 728 727 727 726 725 724 724 723 723 722 722 721 720 720 719
777 777 776 775 774 773 772 771 770 769 768 767 766 764 764 762 761 760 759 758 757 756 755 754 753 752 751 750 749 748 747 747 746 745 745 744 743 742 741 740 739 738 737 736 735 734 733 732 731 730 730 729 729 728 727 726 725 724 724 723 722 721 721 721 720 720 719 719 718
776 775 774 774 773 772 771 770 769 768 767 766 764 764 763 761 760 759 758 757 756 755 754 753 752 751 750 749 748 747 745 744 744 743 743 742 741 740 739 739 738 737 736 735 734 733 732 731 730 729 729 728 727 726 725 724 724 723 722 721 720 720 719 719 719 718 718 717 717
775 774 773 772 772 771 769 769 768 767 766 765 764 762 761 760 759 758 757 756 754 753 752 751 750 749 748 747 746 745 744 743 742 741 740 740 739 738 737 736 735 735 735 734 733 732 731 730 729 728 728 727 726 724 724 723 722 721 720 719 719 718 717 717 716 716 716 715 715
774 773 772 771 770 769 769 768 767 766 765 764 762 761 760 759 758 757 756 755 754 752 750 749 748 747 746 745 744 743 742 741 740 739 738 738 737 736 735 734 733 733 733 733 732 731 730 729 728 727 726 725 724 723 722 721 720 719 718 717 716 716 715 715 714 714 714 714 713
773 772 771 770 769 768 767 767 766 764 764 762 761 760 759 758 757 755 754 754 752 751 749 748 746 745 744 743 742 741 740 739 738 737 736 735 735 734 733 731 730 730 730 730 730 729 729 728 727 726 725 724 723 722 721 720 719 717 716 715 714 713 713 713 712 712 711 711 711
772 771 770 769 768 767 766 765 764 763 762 761 760 759 758 757 755 754 753 753 751 749 748 746 745 744 742 741 740 739 738 737 736 735 734 733 733 732 731 729 728 727 728 728 728 727 727 726 725 724 724 723 722 720 719 718 717 716 714 713 712 711 711 710 710 709 709 709 709
770 770 769 768 767 766 765 764 763 762 761 759 758 757 756 755 754 753 752 751 750 749 747 745 744 742 741 740 739 737 735 734 734 733 732 731 730 730 729 727 726 725 725 725 725 725 724 724 723 723 722 721 720 719 718 717 715 714 713 712 710 709 709 708 708 708 707 706 706
769 768 767 766 765 764 763 762 761 760 759 758 757 755 754 753 752 751 750 749 748 747 745 744 742 740 739 738 737 735 733 732 731 730 730 729 728 727 727 725 724 722 722 722 722 722 722 722 721 720 720 719 718 717 716 715 714 712 711 710 709 708 707 706 706 705 705 704 704
767 766 766 765 764 763 762 760 759 758 757 756 755 754 752 751 750 749 748 747 746 745 744 742 740 739 738 737 735 734 731 729 728 727 727 726 725 725 724 723 721 719 719 718 719 719 719 719 718 718 717 717 716 715 714 713 712 710 709 708 707 706 705 704 704 703 703 702 701